Погода в Байрамауле

Россия / Республика Дагестан     43°17′46″N   46°43′39″E
В апреле 2022 года жителям России запретили посещать сайт meteo.paraplan.net по решению Генеральной прокуратуры. Аудитория сайта уменьшилась в 10 раз. Владельцы сайта не видят смысла в поддержке погодного сервера в таких условиях. Сайт будет закрыт в октябре.
темп.,
°C
ветер,
м/с
пор.,
м/с
влажн.,
%
обл.,
%
осадки,
мм/ч
давл.,
гПа
погр.,
м
25 сентября, вс
вс2500:00+14з3666100 0.1 1017236
03:00+14зсз366399 0.0 1018213
06:00+14зсз5106286 0.0 1020598
09:00+16з575290 0.0 1022987
12:00+16з56497 0.0 1022867
15:00+20ссз33380 0.0 10211600
18:00+15ссв12500 0.0 102213
21:00+14ююз22577 0.0 102312
26 сентября, пн
пн2600:00+13ююз22605 0.0 102313
03:00+12ююв11640 0.0 102312
06:00+12вюв12655 0.0 102211
09:00+20в45420 0.0 1022819
12:00+23в55340 0.0 10191420
15:00+24в77430 0.0 10181366
18:00+18в69660 0.0 1018278
21:00+16вюв36805 0.0 1018106
27 сентября, вт
вт2700:00+15юв22840 0.0 101719
03:00+14ююв11825 0.0 101611
06:00+14ююв22775 0.0 101512
09:00+22вюв67500 0.0 1013900
12:00+26в76410 0.0 10111293
15:00+26в7645100 0.0 10101029
18:00+19в4775100 0.0 1010202
21:00+18вюв2381100 0.0 101046
28 сентября, ср
ср2800:00+16юв11825 0.0 100911
03:00+15з1181100 0.0 100811
06:00+16з3371100 0.0 100842
09:00+22сз225599 0.0 1007426
12:00+28в3334100 0.0 10061042
15:00+28в5337100 0.0 10051122
18:00+20в357749 0.0 100778
21:00+18ю1277100 0.0 100812
29 сентября, чт
чт2900:00+19з226465 0.0 100821
03:00+18з35565 0.0 100966
06:00+20з495197 0.0 1010231
09:00+25зсз794076 0.0 1011945
12:00+28зсз683433 0.0 10111653
15:00+29зсз67285 0.0 10102183
18:00+23з45395 0.0 101355
21:00+21зюз334371 0.0 101438